THOR ABLESTAR DEB, 261

Orbit data source: Space-Track

THOR ABLESTAR DEB, 261 is space debris in LEO originally from a launch on Thu, 29 Jun 1961 UTC launched from the Air Force Eastern Test Range (AFETR). Debris objects in space refer to the collection of defunct objects orbiting the Earth. Examples of debris include non-operational satellites, rocket bodies, and fragments generated from explosions, collisions, or faulty payload assembly.

Loading next visibility...
Identifier
261, 1961-015CH
Orbit
LEO
Country
Flag of USUS
Related business
Manufacturer
Unknown
Mission
Spacecraft
Bus & Motor
Unknown
Mass
Unknown
Launch date (UTC)
1961-06-29 (64 years ago)
Launch vehicle
Unknown
Launch site
Air Force Eastern Test Range (AFETR)
Object type
Payload
Rocket body
Debris
Shape & HBR
Unknown
Radar Cross Section
Small (<0.1 m²)

Expand to show TLE details & history
Last TLE update: 19 hours ago

TLE from 19 hours ago
0 THOR ABLESTAR DEB
1 00261U 61015CH  25260.66367598  .00000103  00000-0  11800-3 0  9994
2 00261  66.6836  12.4894 0086546 166.1567 194.1919 14.00909783273912
Epoch: 2025-09-17T15:55Z
TLE epoch observation values (Epoch: 2025-09-17T15:55:41.604Z)
Latitude
-0.00003°
Longitude
136.72965°
Altitude
953.751 km
Speed
7.344 km/s
True Right ascension
00h 49m 57s
True Declination
0° 00' 00"
Sunlit
Object was in full shadow at epoch
Visualization orbit readout
Latitude
Unknown
Longitude
Unknown
Altitude
Unknown
Speed
Unknown
Apparent Right ascension
Unknown
Apparent Declination
Unknown
Sunlit
N/A
Visualization observer readout
Local Sidereal Time
03:36:22
Azimuth
Unknown
Elevation
Unknown
Doppler factor
Unknown
Orbital elements
Apogee altitude
951.94 km
Perigee altitude
826.151 km
Semi-major axis
7,267.182 km
Eccentricity
0.00865
Inclination
66.6836°
RAAN
12.4894°
Arg. of periapsis
166.1567°
True anomaly
193.95128°
Mean anomaly
194.1919°
Eccentric anomaly
194.07134°
Mean motion
3.50344 °/min
Orbital period
102.76 mins
BSTAR
0.000118
Loading maneuver chart data...
Computing Atmospheric mass density...

Documentation

Showing up to 5 results
|